Location: *
(48.8780°N, 19.2358°E)
Time: 01:55:10
(UTC+00:00)

H-2A R/B - Pass Details

Date: 18 October 2019
Orbit: 733 x 837 km, 98.3° (Epoch: 18 November)

Event Time Altitude Azimuth Distance (km) Brightness Sun altitude
Exits shadow 16:55:06 15° 77° (ENE) 2,077 3.6 -11.7°
Maximum altitude 16:56:48 17° 55° (NE) 1,958 3.6 -12.0°
Drops below altitude 10° 17:00:14 10° 16° (NNE) 2,447 4.4 -12.5°
Sets 17:03:21 0° 357° (N) 3,395 5.4 -13.0°
